This is the latest recevied weather packets stored in our database for station/object W1ERB-13. If no packets are shown the sender has not sent any weather packets the latest 10 day(s).
| Time | Temp. | Humidity | Pressure | Rain* | Wind** | Luminosity | Snow |
|---|---|---|---|---|---|---|---|
| 1777535651 | 8.33° C | 98% | 1008.2 hPa | 1.27 mm | - | 0 W/m² | - |
| 1777535349 | 8.89° C | 98% | 1008.3 hPa | 0 mm | - | 0 W/m² | - |
| 1777535046 | 8.89° C | 98% | 1008.3 hPa | 0 mm | - | 0 W/m² | - |
| 1777534743 | 8.89° C | 98% | 1008.4 hPa | 1.78 mm | - | 0 W/m² | - |
| 1777534439 | 8.89° C | 98% | 1008.3 hPa | 1.78 mm | - | 0 W/m² | - |
| 1777534137 | 8.89° C | 98% | 1008.5 hPa | 1.78 mm | - | 0 W/m² | - |
| 1777533834 | 8.89° C | 98% | 1008.4 hPa | 3.05 mm | - | 0 W/m² | - |
| 1777533531 | 8.89° C | 98% | 1008.4 hPa | 3.05 mm | - | 0 W/m² | - |
| 1777533227 | 8.89° C | 98% | 1008.5 hPa | 0 mm | - | 0 W/m² | - |
| 1777532923 | 8.89° C | 98% | 1008.3 hPa | 0 mm | - | 0 W/m² | - |
| 1777532620 | 8.89° C | 97% | 1008.4 hPa | 0 mm | - | 0 W/m² | - |
| 1777532317 | 8.89° C | 97% | 1008.5 hPa | 0 mm | - | 0 W/m² | - |
| 1777532013 | 8.89° C | 97% | 1008.4 hPa | 0 mm | - | 0 W/m² | - |
| 1777531710 | 8.89° C | 97% | 1008.3 hPa | 1.78 mm | - | 0 W/m² | - |
| 1777531406 | 8.89° C | 97% | 1008.5 hPa | 1.78 mm | - | 0 W/m² | - |
| 1777531104 | 8.89° C | 97% | 1008.5 hPa | 0 mm | - | 0 W/m² | - |
| 1777530801 | 8.89° C | 97% | 1008.4 hPa | 0 mm | - | 0 W/m² | - |
| 1777530499 | 8.33° C | 97% | 1008.4 hPa | 1.27 mm | - | 0 W/m² | - |
| 1777530195 | 8.89° C | 97% | 1008.2 hPa | 3.05 mm | - | 0 W/m² | - |
| 1777529892 | 8.89° C | 96% | 1008.5 hPa | 1.78 mm | - | 0 W/m² | - |
| 1777529588 | 8.89° C | 96% | 1008.5 hPa | 1.27 mm | - | 0 W/m² | - |
| 1777529286 | 8.33° C | 96% | 1008.4 hPa | 3.05 mm | - | 0 W/m² | - |
| 1777528982 | 8.89° C | 96% | 1008.7 hPa | 3.05 mm | - | 0 W/m² | - |
| 1777528677 | 8.89° C | 96% | 1008.7 hPa | 3.05 mm | - | 0 W/m² | - |
| 1777528375 | 8.89° C | 96% | 1008.7 hPa | 3.05 mm | - | 0 W/m² | - |
* Rain latest hour (hover to see other rain measurements)
** Current wind speed in m/s (hover to see current wind gust speed)